[[{"header":{"parameterUnit":"m.s-1","parameterCategory":1,"la1":30.2992,"la2":30.254,"lo1":-89.0895,"lo2":-89.0443,"dy":0.0025,"dx":0.0025,"nx":19,"ny":19,"refTime":"2026-05-13T03:00:00:Z","depth":0,"parameterNumber":2,"parameterNumberName":"U-component_of_WINDS"},"data":[0,0,0,0.3983,0.3986,0.4135,0.4135,0.4322,0.4324,0,0,0,0,0,0,0,0,0,0,0,0.3932,0.3933,0.3982,0.3986,0.4135,0.4135,0.4322,0.4324,0,0,0,0,0,0,0,0,0,0,0,0.3932,0.3933,0.3934,0.3986,0.4135,0.4135,0.4322,0.4211,0,0,0,0,0,0,0,0,0,0,0.4068,0.4014,0.3933,0.3934,0.3987,0.4134,0.4136,0.4206,0.4218,0.4252,0,0.4277,0,0.4303,0.4336,0.4336,0,0,0,0.3991,0.4004,0.4049,0.3934,0.3988,0.4134,0.4069,0.4213,0.4227,0.4268,0.4279,0.4287,0.4306,0.4337,0.4338,0.4507,0.4507,0,0,0.3983,0.3956,0.404,0.4058,0.403,0.4064,0.4074,0.4221,0.4233,0.428,0.4291,0.4309,0.4338,0.4339,0.4506,0.4507,0,0,0,0.3956,0.395,0.3992,0.405,0.4077,0.4068,0.4079,0.4227,0.4243,0.4293,0.4311,0.4339,0.4341,0.4506,0.4506,0.4506,0,0,0,0.3951,0.3934,0.3989,0.3974,0.4074,0.4153,0.4081,0.4233,0.425,0.431,0.4339,0.4343,0.4505,0.4506,0.4505,0.4511,0,0,0,0.3925,0.3931,0.395,0.3972,0.4034,0.4151,0.4176,0.4237,0.4261,0.4337,0.4344,0.4505,0.4506,0.4504,0.4509,0.4549,0,0,0,0.3889,0.3947,0.395,0.4023,0.4033,0.4148,0.4175,0.4263,0.4327,0.434,0.4505,0.4506,0.4503,0.4508,0.4547,0.4578,0.4587,0,0,0.3948,0.3953,0.3999,0.4005,0.4113,0.4128,0.4238,0.4323,0.4357,0.4456,0.446,0.4505,0.4509,0.4549,0.4649,0.4656,0,0,0,0.4008,0.4041,0.4075,0.4134,0.42,0.4259,0.4331,0.4364,0.4449,0.4401,0.4531,0.4534,0.4558,0.4574,0.458,0.4605,0.4512,0.4512,0.4512,0.4053,0.4091,0.417,0.4227,0.4285,0.436,0.4412,0.4469,0.4491,0.4522,0.4552,0.4607,0.4625,0.463,0.4654,0.457,0.457,0.457,0.457,0.4143,0.4196,0.4226,0.4312,0.4355,0.443,0.4506,0.452,0.4599,0.4587,0.4611,0.4596,0.4636,0.466,0.457,0.457,0.457,0.457,0.457,0.4177,0.421,0.4247,0.4339,0.4407,0.4465,0.4539,0.4576,0.4611,0.4634,0.4671,0.4671,0.4678,0.4649,0.4649,0.4649,0.4649,0.465,0.465,0.4198,0.4241,0.4297,0.4374,0.4419,0.4483,0.4561,0.4608,0.4669,0.469,0.4691,0.4712,0.4632,0.4612,0.4653,0.4652,0.4652,0.4652,0.4651,0.4277,0.4265,0.4352,0.4397,0.4493,0.456,0.4606,0.4698,0.4742,0.4779,0.4797,0.473,0.474,0.4735,0.4719,0.4786,0.4786,0.4786,0.4786,0.4306,0.4314,0.4413,0.4483,0.4556,0.4607,0.471,0.4774,0.4838,0.4869,0.4865,0.4846,0.484,0.4853,0.4846,0.4832,0.4926,0.4926,0.4926,0.4358,0.4376,0.4453,0.4514,0.4593,0.4661,0.476,0.4843,0.4914,0.4932,0.4895,0.4889,0.486,0.4847,0.4864,0.4852,0.4826,0,0]},{"header":{"parameterUnit":"m.s-1","parameterCategory":1,"la1":30.2992,"la2":30.254,"lo1":-89.0895,"lo2":-89.0443,"dy":0.0025,"dx":0.0025,"nx":19,"ny":19,"refTime":"2026-05-13T03:00:00:Z","depth":0,"parameterNumber":3,"parameterNumberName":"V-component_of_WINDS"},"data":[0,0,0,-0.8529,-0.8527,-0.8431,-0.8431,-0.829,-0.8289,0,0,0,0,0,0,0,0,0,0,0,-0.8546,-0.8544,-0.8529,-0.8526,-0.8432,-0.8431,-0.8291,-0.8289,0,0,0,0,0,0,0,0,0,0,0,-0.8546,-0.8545,-0.8543,-0.8526,-0.8432,-0.8431,-0.8291,-0.8369,0,0,0,0,0,0,0,0,0,0,-0.8465,-0.847,-0.8545,-0.8543,-0.8525,-0.8432,-0.8431,-0.8373,-0.8364,-0.8325,0,-0.8288,0,-0.8286,-0.8278,-0.8278,0,0,0,-0.8535,-0.8477,-0.8462,-0.8543,-0.8524,-0.8432,-0.8477,-0.8369,-0.8358,-0.8313,-0.8286,-0.8281,-0.8283,-0.8277,-0.8276,-0.8021,-0.8019,0,0,-0.854,-0.8522,-0.8468,-0.8454,-0.8468,-0.848,-0.8474,-0.8363,-0.8332,-0.8285,-0.8278,-0.8281,-0.8276,-0.8275,-0.8022,-0.802,0,0,0,-0.8549,-0.8526,-0.8514,-0.846,-0.8444,-0.8477,-0.847,-0.8337,-0.8334,-0.8277,-0.828,-0.8275,-0.8273,-0.8024,-0.8022,-0.7923,0,0,0,-0.8553,-0.8531,-0.8515,-0.8504,-0.8446,-0.8389,-0.8446,-0.8342,-0.833,-0.828,-0.8275,-0.8272,-0.8026,-0.8023,-0.793,-0.7878,0,0,0,-0.8556,-0.8532,-0.8514,-0.8503,-0.8462,-0.8391,-0.8383,-0.834,-0.8331,-0.8278,-0.8271,-0.8027,-0.8023,-0.7935,-0.7888,-0.7803,0,0,0,-0.8554,-0.843,-0.8512,-0.8375,-0.8462,-0.8333,-0.8384,-0.8288,-0.8231,-0.8274,-0.8026,-0.8022,-0.7937,-0.7894,-0.7809,-0.7725,-0.7689,0,0,-0.8387,-0.8409,-0.833,-0.8401,-0.8252,-0.8348,-0.8185,-0.8149,-0.8161,-0.8067,-0.8061,-0.7928,-0.7889,-0.7804,-0.7504,-0.7475,0,0,0,-0.8271,-0.8213,-0.8178,-0.8122,-0.8092,-0.8061,-0.8053,-0.804,-0.7961,-0.8109,-0.7877,-0.7854,-0.7805,-0.7765,-0.7741,-0.7698,-0.8004,-0.8005,-0.8005,-0.8008,-0.803,-0.7899,-0.7908,-0.7853,-0.7846,-0.7803,-0.7783,-0.7822,-0.7767,-0.7737,-0.7553,-0.7506,-0.7488,-0.7443,-0.7699,-0.7698,-0.7698,-0.7698,-0.7763,-0.7683,-0.7737,-0.7629,-0.7651,-0.7561,-0.7549,-0.7579,-0.7497,-0.7577,-0.7535,-0.7616,-0.7456,-0.7417,-0.7691,-0.7692,-0.7693,-0.7693,-0.7694,-0.759,-0.7554,-0.7541,-0.7461,-0.7398,-0.7413,-0.733,-0.7356,-0.7379,-0.7338,-0.7307,-0.7309,-0.731,-0.7323,-0.7322,-0.7321,-0.7321,-0.732,-0.732,-0.7413,-0.7401,-0.7328,-0.7285,-0.7252,-0.7211,-0.7203,-0.717,-0.714,-0.7165,-0.7165,-0.7206,-0.7438,-0.7493,-0.731,-0.7312,-0.7313,-0.7314,-0.7314,-0.7148,-0.7212,-0.7099,-0.7065,-0.7016,-0.6949,-0.6985,-0.6916,-0.6893,-0.6851,-0.6903,-0.7072,-0.7095,-0.7115,-0.716,-0.6901,-0.6901,-0.6901,-0.6901,-0.6997,-0.7013,-0.6902,-0.6846,-0.6795,-0.6814,-0.6684,-0.6676,-0.6679,-0.6665,-0.6708,-0.6772,-0.6791,-0.6803,-0.6829,-0.6871,-0.6545,-0.6545,-0.6544,-0.6833,-0.6845,-0.6729,-0.6732,-0.6696,-0.6663,-0.6541,-0.6473,-0.649,-0.653,-0.6654,-0.6669,-0.6773,-0.6807,-0.6845,-0.6885,-0.6963,0,0]}]]